User: anonymous   Login
Location: Unspecified
(0.0000°N, 0.0000°E)
Time: 21:12:47
(UTC+02:00)
Language:

Resurs 1-3 - Orbit

View from above orbital plane
View from above orbital plane
View from above satellite
View from above satellite

Ground track
Ground track

The orbit data is extracted from the following two-line orbital elements,

1 23342U 94074A   14295.67175257  .00000939  00000-0  13586-3 0  3327
2 23342 098.1642 307.6645 0001204 079.1428 058.0295 14.78530868 74623
Epoch (UTC): 22 October 2014 16:07:19
Eccentricity: 0.0001204
inclination: 98.1642°
perigee height: 633 km
apogee height: 635 km
right ascension of ascending node: 307.6645°
argument of perigee: 79.1428°
revolutions per day: 14.78530868
mean anomaly at epoch: 58.0295°
orbit number at epoch: 7462

The dashed part of the orbit path shows where the satellite is in the earth's shadow,  

DLR